Погода в Килунге

Тайвань     25°06′30″N   121°48′38″E
темп.,
°C
ветер,
м/с
пор.,
м/с
влажн.,
%
обл.,
%
осадки,
мм/ч
давл.,
гПа
погр.,
м
30 июня, чт
чт3023:00+24юв2890100 0.0 1008528
02:00+24юв41190100 0.1 1006609
05:00+24юв61389100 0.1 1006825
08:00+26юв71276100 0.1 1006913
11:00+28юв9136998 0.0 10061013
14:00+28юв8117071 0.0 1005974
17:00+27юв71179100 0.1 1005824
20:00+24юв61188100 0.3 1007742
1 июля, пт
пт123:00+24юв4119095 0.2 1007686
02:00+24юв4109055 0.3 1006565
05:00+23юв229692 0.1 100664
08:00+27юв4874100 0.1 1007746
11:00+28юв697248 0.1 10071005
14:00+28юв7107539 0.5 1006892
17:00+26юв6108099 0.2 1005797
20:00+24юв3108929 0.4 1007630
2 июля, сб
сб223:00+23юв23935 0.2 100786
02:00+23ююв119448 0.3 100626
05:00+23ю119246 0.0 100614
08:00+28с116982 0.0 1006680
11:00+28ссв2270100 1.0 1006890
14:00+27ссв2375100 5.5 1005738
17:00+26ссв1179100 2.2 1005415
20:00+24зсз2391100 3.4 100689
3 июля, вс
вс323:00+23з3597100 0.1 1006298
02:00+23з3797100 0.1 1004458
05:00+23з3698100 0.1 1004278
08:00+25з2385100 0.1 1005542
11:00+28зсз237298 0.6 10041086
14:00+27зюз1275100 3.1 1003711
17:00+28ююз1275100 0.9 1002607
20:00+25ю1190100 0.9 100335
4 июля, пн
пн423:00+24ююз119297 0.0 100314
02:00+24ю119197 0.1 100112
05:00+24зюз008827 0.1 100211
08:00+28вюв117110 0.1 1002523
11:00+32св2257100 0.0 10021426
14:00+30св217239 4.6 1001868
17:00+27св1181100 5.1 1001540
20:00+25св1192100 7.8 100230